Flag for Greece Weather past 2 weeks in Heraklion, Crete, Greece

Now
52 °F

Passing clouds.


Feels Like: 51 °F
Forecast: 51 / 63 °F
Wind: 3 mph from North

Location: Heraklion Airport

Current Time: Dec 19, 2014 at 12:41:03 AM

Latest Report: Dec 18, 2014 at 11:50 PM


Visibility: N/A

Pressure: 30.07 "Hg

Humidity: 88%

Dew point: 48 °F

Location of HeraklionLocation

Historic Weather in Heraklion — Graph

°F

Heraklion temperature yesterday

Maximum temperature yesterday: 68 °F (at 1:50 PM)
Minimum temperature yesterday: 54 °F (at 6:20 AM)
Average temperature yesterday: 60 °F

Past Weeks' High & Low Weather Summary

 TemperatureHumidityPressure
High73 °F (Dec 4, 9:50 AM)94% (Dec 4, 6:50 PM)30.27 "Hg (Dec 4, 6:50 PM)
Low52 °F (Dec 9, 6:50 AM)52% (Dec 8, 7:50 AM)29.53 "Hg (Dec 9, 3:50 AM)
Average60 °F76%30.00 "Hg
* Reported Dec 3 11:50 PM — Dec 18 11:20 PM, Heraklion, Weather by CustomWeather, © 2014

Note: Actual official high and low records may vary slightly from our data, if they occured in-between our weather recording intervals... More about our weather records

Advertising

Heraklion weather history for previous 24 hours

 ConditionsComfort  
Time TempWeatherWind HumidityBarometerVisibility
11:20 PM
Dec 18
55 °FPassing clouds.6 mph77%30.07 "HgN/A
10:50 PM55 °FPassing clouds.5 mph77%30.07 "HgN/A
10:20 PM55 °FPassing clouds.5 mph82%30.04 "HgN/A
9:50 PM55 °FPassing clouds.7 mph82%30.04 "HgN/A
9:20 PM57 °FPassing clouds.5 mph82%30.04 "HgN/A
8:50 PM57 °FPassing clouds.5 mph82%30.04 "HgN/A
8:20 PM59 °FPassing clouds.5 mph82%30.04 "HgN/A
7:50 PM59 °FPassing clouds.8 mph82%30.04 "HgN/A
7:20 PM57 °FPassing clouds.7 mph72%30.04 "HgN/A
6:50 PM57 °FPassing clouds.7 mph72%30.04 "HgN/A
6:20 PM57 °FPassing clouds.6 mph77%30.01 "HgN/A
5:50 PM57 °FPassing clouds.6 mph77%30.01 "HgN/A
5:20 PM61 °FPassing clouds.3 mph77%30.01 "HgN/A
4:50 PM61 °FScattered clouds.3 mph77%30.01 "HgN/A
4:20 PM64 °FScattered clouds.3 mph78%30.01 "HgN/A
3:50 PM64 °FScattered clouds.3 mph78%30.01 "HgN/A
3:20 PM68 °FScattered clouds.3 mph56%30.01 "HgN/A
2:50 PM68 °FScattered clouds.3 mph56%30.01 "HgN/A
2:20 PM68 °FScattered clouds.3 mph56%30.01 "HgN/A
1:50 PM68 °FScattered clouds.3 mph56%30.01 "HgN/A
1:20 PM66 °FScattered clouds.No wind60%30.01 "HgN/A
12:50 PM66 °FScattered clouds.3 mph60%30.04 "HgN/A
12:20 PM66 °FPassing clouds.3 mph56%30.04 "HgN/A
11:50 AM66 °FPassing clouds.5 mph56%30.04 "HgN/A
11:20 AM66 °FPassing clouds.No wind56%30.04 "HgN/A
10:50 AM66 °FPassing clouds.3 mph52%30.07 "HgN/A
10:20 AM63 °FPassing clouds.6 mph68%30.07 "HgN/A
9:50 AM63 °FPassing clouds.7 mph68%30.07 "HgN/A
9:20 AM61 °FPassing clouds.6 mph68%30.04 "HgN/A
8:50 AM57 °FPassing clouds.7 mph72%30.04 "HgN/A
8:20 AM55 °FPassing clouds.7 mph72%30.04 "HgN/A
7:50 AM54 °FPassing clouds.9 mph77%30.04 "HgN/A
7:20 AM54 °FPassing clouds.7 mph88%30.01 "HgN/A
6:50 AM54 °FPassing clouds.5 mph88%30.01 "HgN/A
6:20 AM54 °FPassing clouds.7 mph88%30.01 "HgN/A
5:20 AM57 °FPartly cloudy.8 mph88%30.04 "HgN/A
2:50 AM57 °FLight rain. Partly cloudy.5 mph94%30.04 "HgN/A
2:20 AM59 °FLight rain. Partly cloudy.No wind82%30.04 "HgN/A
1:50 AM59 °FLight rain. Partly cloudy.5 mph88%30.04 "HgN/A
1:20 AM61 °FPassing clouds.10 mph59%30.04 "HgN/A
12:50 AM61 °FPassing clouds.8 mph59%30.04 "HgN/A
12:20 AM63 °FPassing clouds.13 mph68%30.04 "HgN/A
Weather by CustomWeather, © 2014

See weather overviewHow to use our weather pages